星链-2108 (STARLINK-2108 )

导读 | 豆包AI

STARLINK-2108是美国SpaceX公司星链(Starlink)计划的第16批次组网卫星之一,于北京时间2021年1月20日发射入轨,属于低轨互联网通信卫星。星链卫星通过大规模组网为全球提供宽带互联网接入服务,单颗卫星可支持高速率通信。该卫星已于2024年9月26日再入地球大气层完成报废脱轨,是星链星座迭代更新的组成部分。

Basic Information
目录编号:
47387
目录名称:
STARLINK-2108
国际标识:
2021-005AQ
轨道中心:
EARTH
卫星名称:
星链-2108
卫星全名:
星链-2108 (STARLINK-2108 )
卫星状态:
已陨落 最后检测时间 2024-09-26
发射日期:
2021-01-20 UTC
国别 :
美国 (US)
星等 :
--
Orbit Information
数据来源 国际轨道数据
星历时间: 2024-09-27T05:44:15+0800
轨道信息已过期533天
半长轴: 6551.975km
偏心率: 0.0004909
轨道倾角: 53.038°
近地点辐角 234.222°
升交点赤经 257.708°
平近点角 231.416°
近地点: 170.623km
远地点: 177.057km
周期: 87.967分钟
每日圈数: 16.369842
Detailed Information
固有亮度:
5
最大亮度:
2.5
卫星平台:
Starlink V1.0
覆盖范围:
全球
运营商:
太空探索技术公司
运营商所在国:
美国
制造商(研发单位):
太空探索技术公司
制造商所在国:
美国
使用方式:
暂无
Satellite Introduction
星链(Starlink)计划是由太空探索技术公司(SpaceX)提出的一个巨型低轨卫星互联网星座项目,计划在2019年至2024年间在太空搭建由约1.2万颗卫星组成的“星链”网络,其中1584颗将部署在地球上空550千米处的近地轨道,并从2020年开始工作。该卫星仍在工作。